Regional Weather Roundup
Issued by NWS State College, PA

Home | Current Version | Previous Version | Graphics & Text | Print | Product List | Glossary Off
Versions: 1 2 3 4 5 6 7 8 9 10 11 12 13 14 15 16 17 18 19 20 21 22 23 24 25 26 27 28 29 30 31 32 33 34 35 36 37 38 39 40 41 42 43 44 45 46 47 48 49 50

000
ASUS41 KCTP 170410
RWRCTP

REGIONAL WEATHER ROUNDUP
NATIONAL WEATHER SERVICE STATE COLLEGE PA
1200 AM EDT WED SEP 17 2014

Note: "fair" indicates few or no clouds below 12,000 feet with no
significant weather and/or obstructions to visibility.

* = STATION THAT DOES NOT REPORT PRECIPITATION /E.G. RAIN...SNOW...ETC/
    THUNDER OR FOG.

PAZ002>004-007>009-013>016-020>023-029>032-170500-
WESTERN PENNSYLVANIA

CITY           SKY/WX    TMP DP  RH WIND       PRES   REMARKS
ERIE           CLEAR     51  45  79 S7        30.07F
MEADVILLE      PTCLDY    49  45  86 CALM      30.09S
FRANKLIN*      CLEAR     46  43  87 CALM      30.10S
NEW CASTLE     MOCLDY    50  49  96 CALM      30.10S
BEAVER COUNTY  NOT AVBL
BUTLER*        PTCLDY    50  46  87 CALM      30.10S
PITTSBURGH INT PTCLDY    56  51  84 N7        30.09R
PITTSBURGH     CLEAR     55  49  80 N3        30.08R
INDIANA*       CLOUDY    50  48  93 CALM      30.13R
LATROBE        PTCLDY    48  48 100 CALM      30.10R
WASHINGTON CO* CLOUDY    46  43  87 CALM      30.09R VSB 1/4
$$

PAZ004>006-010>012-017>019-024>028-033>037-041-042-045-046-049>053-170500-
CENTRAL PENNSYLVANIA

CITY           SKY/WX    TMP DP  RH WIND       PRES   REMARKS
BRADFORD       CLEAR     39  37  92 CALM      30.08S
DUBOIS         PTCLDY    46  44  93 CALM      30.08S
CLEARFIELD     CLEAR     48  45  89 NW3       30.09R
JOHNSTOWN      CLEAR     49  45  86 SW3       30.09R
ALTOONA        CLEAR     49  47  93 CALM      30.09R
STATE COLLEGE  MOCLDY    52  49  90 CALM      30.08R
WILLIAMSPORT   MOCLDY    52  49  89 NW3       30.06S
SELINSGROVE    MOCLDY    52  50  93 CALM      30.07R
FT INDIANTOWN  MOCLDY    53  53 100 CALM      30.05S
CAPITAL CITY   CLEAR     54  50  86 SW3       30.05R
HARRISBURG     PTCLDY    58  52  80 CALM      30.04R
YORK           CLEAR     48  46  93 W5        30.05R
$$

PAZ038>040-043-044-047-048-054-055-060>062-067>071-170500-
EASTERN PENNSYLVANIA

CITY           SKY/WX    TMP DP  RH WIND       PRES   REMARKS
SCRANTON       CLEAR     49  46  90 E7        30.06R
MOUNT POCONO     N/A     43  40  89 N5        30.07R
ALLENTOWN      CLEAR     51  47  86 CALM      30.05R
QUAKERTOWN*    CLEAR     50  48  93 CALM      30.06R
READING        CLEAR     54  50  86 CALM      30.04R
LANCASTER      NOT AVBL
COATESVILLE    CLEAR     55  52  88 CALM      30.06S
POTTSTOWN      CLEAR     53  50  89 CALM      30.06R
BLUE BELL      PTCLDY    52  52 100 CALM      30.04R
DOYLESTOWN     CLEAR     53  32  44 CALM      30.04R
WILLOW GROVE   NOT AVBL
NORTH PHILA    MOCLDY    59  49  69 CALM      30.06R
PHILADELPHIA   PTCLDY    63  50  62 N6        30.04R
$$


USA.gov is the U.S. government's official web portal to all federal, state and local government web resources and services.